| time (UTC) | temp F | wind direction | speed knots | gust knots | rain 1hr in | rain 24hr in | rain mn in | humidity % | barometer mb |
| 20260503215636 | 91 | 60 | 3.5 | 5.2 | 0.00 | 0.00 | 0.00 | 25 | 1009.7 |
| 20260503215132 | 91 | 278 | 2.6 | 4.3 | 0.00 | 0.00 | 0.00 | 25 | 1009.7 |
| 20260503214631 | 93 | 89 | 0.9 | 6.1 | 0.00 | 0.00 | 0.00 | 28 | 1009.6 |
| 20260503214126 | 92 | 350 | 0.9 | 5.2 | 0.00 | 0.00 | 0.00 | 26 | 1009.8 |
| 20260503213620 | 91 | 94 | 1.7 | 2.6 | 0.00 | 0.00 | 0.00 | 26 | 1009.9 |
| 20260503213116 | 89 | 163 | 1.7 | 5.2 | 0.00 | 0.00 | 0.00 | 29 | 1009.8 |
| 20260503212614 | 91 | 85 | 2.6 | 4.3 | 0.00 | 0.00 | 0.00 | 26 | 1009.9 |
| 20260503212111 | 90 | 145 | 2.6 | 4.3 | 0.00 | 0.00 | 0.00 | 26 | 1010.0 |
| 20260503211609 | 88 | 58 | 2.6 | 4.3 | 0.00 | 0.00 | 0.00 | 30 | 1010.0 |
| 20260503211104 | 90 | 81 | 1.7 | 4.3 | 0.00 | 0.00 | 0.00 | 27 | 1010.1 |
| 20260503210601 | 89 | 316 | 3.5 | 4.3 | 0.00 | 0.00 | 0.00 | 29 | 1010.2 |
| 20260503210056 | 90 | 0 | 1.7 | 2.6 | 0.00 | 0.00 | 0.00 | 30 | 1010.3 |
| 20260503205553 | 87 | 142 | 1.7 | 1.7 | 0.00 | 0.00 | 0.00 | 31 | 1010.4 |
| 20260503205050 | 88 | 25 | 3.5 | 6.1 | 0.00 | 0.00 | 0.00 | 31 | 1010.3 |
| 20260503204547 | 89 | 33 | 2.6 | 4.3 | 0.00 | 0.00 | 0.00 | 31 | 1010.2 |
| 20260503204044 | 89 | 157 | 1.7 | 4.3 | 0.00 | 0.00 | 0.00 | 31 | 1010.4 |
| 20260503203541 | 87 | 133 | 0.9 | 4.3 | 0.00 | 0.00 | 0.00 | 33 | 1010.6 |
| 20260503203038 | 87 | 126 | 5.2 | 5.2 | 0.00 | 0.00 | 0.00 | 32 | 1010.5 |
| 20260503202536 | 88 | 109 | 1.7 | 1.7 | 0.00 | 0.00 | 0.00 | 34 | 1010.7 |
| 20260503202034 | 88 | 150 | 0.0 | 2.6 | 0.00 | 0.00 | 0.00 | 33 | 1010.6 |
| 20260503201532 | 88 | 156 | 1.7 | 2.6 | 0.00 | 0.00 | 0.00 | 32 | 1010.6 |
| 20260503201028 | 87 | 49 | 3.5 | 5.2 | 0.00 | 0.00 | 0.00 | 33 | 1011.0 |
| 20260503200524 | 88 | 84 | 0.9 | 2.6 | 0.00 | 0.00 | 0.00 | 35 | 1010.6 |
| 20260503200021 | 87 | 157 | 0.9 | 1.7 | 0.00 | 0.00 | 0.00 | 37 | 1010.7 |
| 20260503195519 | 87 | 117 | 0.9 | 2.6 | 0.00 | 0.00 | 0.00 | 35 | 1010.8 |
| 20260503195015 | 86 | 72 | 0.9 | 2.6 | 0.00 | 0.00 | 0.00 | 35 | 1011.0 |
| 20260503194513 | 86 | 212 | 2.6 | 4.3 | 0.00 | 0.00 | 0.00 | 38 | 1011.1 |
| 20260503194012 | 84 | 143 | 2.6 | 2.6 | 0.00 | 0.00 | 0.00 | 41 | 1011.1 |
| 20260503193509 | 85 | 146 | 2.6 | 2.6 | 0.00 | 0.00 | 0.00 | 38 | 1011.0 |
| 20260503193004 | 83 | 135 | 0.9 | 4.3 | 0.00 | 0.00 | 0.00 | 39 | 1011.1 |
| 20260503192501 | 84 | 98 | 1.7 | 2.6 | 0.00 | 0.00 | 0.00 | 40 | 1011.1 |
| 20260503191956 | 84 | 69 | 1.7 | 2.6 | 0.00 | 0.00 | 0.00 | 36 | 1011.4 |
| 20260503191454 | 85 | 115 | 2.6 | 2.6 | 0.00 | 0.00 | 0.00 | 35 | 1011.4 |
| 20260503190950 | 84 | 2 | 3.5 | 5.2 | 0.00 | 0.00 | 0.00 | 37 | 1011.5 |
| 20260503190448 | 84 | 5 | 0.9 | 4.3 | 0.00 | 0.00 | 0.00 | 37 | 1011.5 |
| 20260503185945 | 85 | 158 | 0.9 | 4.3 | 0.00 | 0.00 | 0.00 | 39 | 1011.5 |
| 20260503185441 | 84 | 325 | 2.6 | 4.3 | 0.00 | 0.00 | 0.00 | 37 | 1011.6 |
| 20260503184940 | 84 | 121 | 2.6 | 4.3 | 0.00 | 0.00 | 0.00 | 37 | 1011.6 |
| 20260503184437 | 83 | 151 | 0.9 | 1.7 | 0.00 | 0.00 | 0.00 | 37 | 1011.6 |
| 20260503183933 | 82 | 199 | 1.7 | 4.3 | 0.00 | 0.00 | 0.00 | 39 | 1011.6 |
| 20260503183430 | 81 | 132 | 0.9 | 2.6 | 0.00 | 0.00 | 0.00 | 41 | 1011.7 |
| 20260503182927 | 81 | 146 | 0.9 | 2.6 | 0.00 | 0.00 | 0.00 | 42 | 1011.9 |
| 20260503182426 | 80 | 84 | 1.7 | 2.6 | 0.00 | 0.00 | 0.00 | 43 | 1012.0 |
| 20260503181923 | 81 | 157 | 1.7 | 4.3 | 0.00 | 0.00 | 0.00 | 41 | 1011.8 |
| 20260503181420 | 81 | 159 | 0.0 | 1.7 | 0.00 | 0.00 | 0.00 | 38 | 1011.9 |
| 20260503180916 | 82 | 113 | 1.7 | 1.7 | 0.00 | 0.00 | 0.00 | 43 | 1011.9 |
| 20260503180415 | 81 | 148 | 0.9 | 2.6 | 0.00 | 0.00 | 0.00 | 46 | 1012.0 |
| 20260503175911 | 79 | 163 | 1.7 | 1.7 | 0.00 | 0.00 | 0.00 | 45 | 1011.8 |
| 20260503175409 | 80 | 123 | 0.9 | 2.6 | 0.00 | 0.00 | 0.00 | 45 | 1011.8 |
| 20260503174904 | 80 | 131 | 0.0 | 0.9 | 0.00 | 0.00 | 0.00 | 47 | 1012.0 |
| 20260503174403 | 78 | 148 | 0.9 | 1.7 | 0.00 | 0.00 | 0.00 | 45 | 1012.2 |
| 20260503173857 | 79 | 86 | 0.9 | 1.7 | 0.00 | 0.00 | 0.00 | 51 | 1012.3 |
| 20260503173354 | 76 | 154 | 0.0 | 0.9 | 0.00 | 0.00 | 0.00 | 53 | 1012.1 |
| 20260503172850 | 76 | 160 | 0.0 | 1.7 | 0.00 | 0.00 | 0.00 | 54 | 1012.2 |
| 20260503172348 | 77 | 147 | 0.9 | 1.7 | 0.00 | 0.00 | 0.00 | 54 | 1012.2 |
| 20260503171844 | 75 | 136 | 0.9 | 1.7 | 0.00 | 0.00 | 0.00 | 56 | 1012.1 |
| 20260503171341 | 74 | 123 | 1.7 | 2.6 | 0.00 | 0.00 | 0.00 | 56 | 1012.3 |
| 20260503170838 | 74 | 272 | 2.6 | 4.3 | 0.00 | 0.00 | 0.00 | 56 | 1012.2 |
| 20260503170335 | 74 | 152 | 0.9 | 0.9 | 0.00 | 0.00 | 0.00 | 56 | 1012.1 |
| 20260503150727 | 64 | 146 | 0.9 | 1.7 | 0.00 | 0.00 | 0.00 | 77 | 1012.5 |
| 20260503150223 | 63 | 128 | 0.9 | 1.7 | 0.00 | 0.00 | 0.00 | 80 | 1012.6 |
| 20260503140148 | 53 | 139 | 0.0 | 0.0 | 0.00 | 0.00 | 0.00 | 98 | 1012.4 |
| 20260503131117 | 50 | 150 | 0.9 | 0.9 | 0.00 | 0.00 | 0.00 | 99 | 1012.2 |
| 20260503130615 | 50 | 136 | 0.0 | 0.0 | 0.00 | 0.00 | 0.00 | 99 | 1011.9 |
| 20260503130112 | 50 | 141 | 0.0 | 0.0 | 0.00 | 0.00 | 0.00 | 99 | 1012.1 |
| 20260503110505 | 51 | 151 | 0.0 | 0.0 | 0.00 | 0.00 | 0.00 | 99 | 1012.7 |
| 20260503090356 | 53 | 153 | 0.0 | 0.0 | 0.00 | 0.00 | 0.00 | 98 | 1013.1 |
| 20260503081323 | 55 | 134 | 0.0 | 0.0 | 0.00 | 0.00 | 0.00 | 97 | 1013.2 |
| 20260503080820 | 55 | 148 | 0.0 | 0.0 | 0.00 | 0.00 | 0.00 | 96 | 1013.0 |
| 20260503080317 | 55 | 155 | 0.0 | 0.0 | 0.00 | 0.00 | 0.00 | 96 | 1013.1 |
| 20260503072753 | 56 | 146 | 0.0 | 0.0 | 0.00 | 0.00 | 0.00 | 95 | 1013.2 |
| 20260503072250 | 56 | 159 | 0.0 | 0.9 | 0.00 | 0.00 | 0.00 | 94 | 1013.2 |
| 20260503071746 | 57 | 148 | 0.0 | 0.9 | 0.00 | 0.00 | 0.00 | 94 | 1013.2 |
| 20260503071244 | 57 | 148 | 0.0 | 0.0 | 0.00 | 0.00 | 0.00 | 94 | 1013.2 |
| 20260503070740 | 57 | 155 | 0.9 | 0.9 | 0.00 | 0.00 | 0.00 | 94 | 1013.1 |
| 20260503070238 | 57 | 146 | 0.0 | 0.0 | 0.00 | 0.00 | 0.00 | 93 | 1012.8 |
| 20260503060157 | 60 | 2 | 2.6 | 2.6 | 0.00 | 0.00 | 0.00 | 89 | 1012.8 |
| 20260503054644 | 60 | 127 | 0.0 | 0.9 | 0.00 | 0.00 | 0.00 | 87 | 1012.8 |
| 20260503054141 | 60 | 151 | 0.0 | 2.6 | 0.00 | 0.00 | 0.00 | 87 | 1012.9 |
| 20260503053639 | 60 | 44 | 1.7 | 1.7 | 0.00 | 0.00 | 0.00 | 86 | 1013.1 |
| 20260503053138 | 60 | 104 | 0.9 | 0.9 | 0.00 | 0.00 | 0.00 | 86 | 1013.3 |
| 20260503052634 | 61 | 148 | 0.0 | 0.9 | 0.00 | 0.00 | 0.00 | 86 | 1013.3 |
| 20260503052130 | 60 | 105 | 0.9 | 1.7 | 0.00 | 0.00 | 0.00 | 86 | 1013.4 |
| 20260503051625 | 61 | 143 | 0.0 | 0.9 | 0.00 | 0.00 | 0.00 | 86 | 1013.1 |
| 20260503051124 | 61 | 143 | 0.0 | 0.9 | 0.00 | 0.00 | 0.00 | 85 | 1013.2 |
| 20260503050620 | 61 | 114 | 0.0 | 0.9 | 0.00 | 0.00 | 0.00 | 85 | 1013.2 |
| 20260503050117 | 61 | 68 | 1.7 | 1.7 | 0.00 | 0.00 | 0.00 | 84 | 1013.3 |
| 20260503045614 | 61 | 185 | 0.9 | 1.7 | 0.00 | 0.00 | 0.00 | 84 | 1013.2 |
| 20260503045111 | 61 | 160 | 2.6 | 2.6 | 0.00 | 0.00 | 0.00 | 84 | 1013.1 |
| 20260503044608 | 62 | 176 | 0.9 | 1.7 | 0.00 | 0.00 | 0.00 | 84 | 1013.3 |
| 20260503044105 | 62 | 134 | 0.9 | 0.9 | 0.00 | 0.00 | 0.00 | 84 | 1013.4 |
| 20260503043601 | 62 | 157 | 0.9 | 2.6 | 0.00 | 0.00 | 0.00 | 83 | 1013.4 |
| 20260503043058 | 62 | 147 | 0.0 | 0.9 | 0.00 | 0.00 | 0.00 | 82 | 1013.4 |
| 20260503042555 | 62 | 146 | 0.0 | 0.0 | 0.00 | 0.00 | 0.00 | 81 | 1013.3 |
| 20260503042051 | 62 | 164 | 0.9 | 0.9 | 0.00 | 0.00 | 0.00 | 81 | 1013.3 |
| 20260503041548 | 62 | 158 | 0.0 | 0.0 | 0.00 | 0.00 | 0.00 | 80 | 1013.3 |
| 20260503041046 | 63 | 155 | 0.0 | 0.9 | 0.00 | 0.00 | 0.00 | 80 | 1013.4 |
| 20260503040543 | 63 | 154 | 0.0 | 1.7 | 0.00 | 0.00 | 0.00 | 79 | 1013.4 |
| 20260503040040 | 63 | 165 | 0.9 | 0.9 | 0.00 | 0.00 | 0.00 | 79 | 1013.3 |
| 20260503035537 | 63 | 152 | 0.0 | 0.9 | 0.00 | 0.00 | 0.00 | 79 | 1013.0 |
| 20260503035035 | 63 | 225 | 1.7 | 1.7 | 0.00 | 0.00 | 0.00 | 78 | 1013.1 |
| 20260503034531 | 63 | 270 | 1.7 | 2.6 | 0.00 | 0.00 | 0.00 | 78 | 1013.1 |
| 20260503034029 | 64 | 182 | 0.9 | 1.7 | 0.00 | 0.00 | 0.00 | 78 | 1013.1 |
| 20260503033526 | 64 | 187 | 1.7 | 2.6 | 0.00 | 0.00 | 0.00 | 78 | 1013.0 |
| 20260503033024 | 64 | 162 | 1.7 | 4.3 | 0.00 | 0.00 | 0.00 | 77 | 1013.0 |
| 20260503032522 | 64 | 252 | 1.7 | 4.3 | 0.00 | 0.00 | 0.00 | 77 | 1013.0 |
| 20260503032020 | 64 | 192 | 1.7 | 2.6 | 0.00 | 0.00 | 0.00 | 77 | 1013.3 |
| 20260503031517 | 64 | 223 | 3.5 | 4.3 | 0.00 | 0.00 | 0.00 | 77 | 1012.7 |
| 20260503031014 | 64 | 312 | 2.6 | 2.6 | 0.00 | 0.00 | 0.00 | 76 | 1012.9 |
| 20260503030510 | 65 | 201 | 2.6 | 6.1 | 0.00 | 0.00 | 0.00 | 75 | 1013.0 |
| 20260503030008 | 65 | 252 | 2.6 | 5.2 | 0.00 | 0.00 | 0.00 | 75 | 1012.9 |
| 20260503025504 | 66 | 218 | 2.6 | 4.3 | 0.00 | 0.00 | 0.00 | 76 | 1012.9 |
| 20260503025002 | 66 | 265 | 2.6 | 4.3 | 0.00 | 0.00 | 0.00 | 76 | 1012.8 |
| 20260503024458 | 67 | 239 | 3.5 | 4.3 | 0.00 | 0.00 | 0.00 | 74 | 1012.8 |
| 20260503023955 | 68 | 169 | 0.9 | 2.6 | 0.00 | 0.00 | 0.00 | 74 | 1012.7 |
| 20260503023452 | 68 | 165 | 1.7 | 2.6 | 0.00 | 0.00 | 0.00 | 73 | 1012.7 |
| 20260503022949 | 69 | 201 | 0.9 | 1.7 | 0.00 | 0.00 | 0.00 | 73 | 1012.7 |
| 20260503022444 | 68 | 174 | 0.9 | 1.7 | 0.00 | 0.00 | 0.00 | 74 | 1012.5 |
| 20260503021940 | 68 | 154 | 1.7 | 4.3 | 0.00 | 0.00 | 0.00 | 75 | 1012.5 |
| 20260503021436 | 68 | 154 | 0.9 | 1.7 | 0.00 | 0.00 | 0.00 | 75 | 1012.6 |
| 20260503020934 | 68 | 167 | 0.9 | 1.7 | 0.00 | 0.00 | 0.00 | 74 | 1012.3 |
| 20260503020432 | 69 | 170 | 0.9 | 1.7 | 0.00 | 0.00 | 0.00 | 73 | 1012.1 |
| 20260503015928 | 69 | 160 | 0.9 | 1.7 | 0.00 | 0.00 | 0.00 | 72 | 1012.0 |
| 20260503015424 | 69 | 156 | 0.9 | 1.7 | 0.00 | 0.00 | 0.00 | 72 | 1012.0 |
| 20260503014921 | 69 | 167 | 0.9 | 1.7 | 0.00 | 0.00 | 0.00 | 72 | 1012.0 |
| 20260503014418 | 69 | 119 | 0.9 | 1.7 | 0.00 | 0.00 | 0.00 | 73 | 1012.0 |
| 20260503013916 | 69 | 179 | 0.9 | 1.7 | 0.00 | 0.00 | 0.00 | 72 | 1012.1 |
| 20260503013413 | 69 | 177 | 1.7 | 2.6 | 0.00 | 0.00 | 0.00 | 72 | 1011.9 |
| 20260503012910 | 69 | 178 | 2.6 | 2.6 | 0.00 | 0.00 | 0.00 | 71 | 1011.9 |
| 20260503012408 | 69 | 167 | 1.7 | 2.6 | 0.00 | 0.00 | 0.00 | 70 | 1011.8 |
| 20260503011904 | 69 | 152 | 2.6 | 2.6 | 0.00 | 0.00 | 0.00 | 70 | 1011.8 |
| 20260503011401 | 70 | 143 | 1.7 | 2.6 | 0.00 | 0.00 | 0.00 | 69 | 1011.7 |
| 20260503010857 | 70 | 185 | 2.6 | 2.6 | 0.00 | 0.00 | 0.00 | 68 | 1011.7 |
| 20260503010354 | 70 | 158 | 0.9 | 1.7 | 0.00 | 0.00 | 0.00 | 67 | 1011.6 |
| 20260503005851 | 70 | 156 | 0.9 | 1.7 | 0.00 | 0.00 | 0.00 | 68 | 1011.8 |
| 20260503005349 | 70 | 170 | 0.9 | 1.7 | 0.00 | 0.00 | 0.00 | 67 | 1011.8 |
| 20260503004845 | 70 | 112 | 1.7 | 2.6 | 0.00 | 0.00 | 0.00 | 66 | 1011.8 |
| 20260503004342 | 70 | 149 | 0.9 | 2.6 | 0.00 | 0.00 | 0.00 | 67 | 1011.9 |
| 20260503003840 | 70 | 152 | 0.9 | 2.6 | 0.00 | 0.00 | 0.00 | 66 | 1011.9 |
| 20260503003336 | 70 | 155 | 1.7 | 2.6 | 0.00 | 0.00 | 0.00 | 66 | 1011.8 |
| 20260503002833 | 70 | 155 | 0.9 | 1.7 | 0.00 | 0.00 | 0.00 | 67 | 1011.8 |
| 20260503002331 | 71 | 152 | 1.7 | 2.6 | 0.00 | 0.00 | 0.00 | 66 | 1012.0 |
| 20260503001827 | 72 | 135 | 1.7 | 2.6 | 0.00 | 0.00 | 0.00 | 64 | 1011.9 |
| 20260503001323 | 71 | 178 | 1.7 | 2.6 | 0.00 | 0.00 | 0.00 | 63 | 1011.7 |
| 20260503000821 | 72 | 179 | 2.6 | 4.3 | 0.00 | 0.00 | 0.00 | 62 | 1011.7 |
| 20260503000319 | 72 | 145 | 0.0 | 0.9 | 0.00 | 0.00 | 0.00 | 62 | 1011.8 |
| 20260502235815 | 72 | 160 | 0.9 | 1.7 | 0.00 | 0.00 | 0.00 | 62 | 1011.9 |
| 20260502235313 | 72 | 168 | 1.7 | 4.3 | 0.00 | 0.00 | 0.00 | 62 | 1011.7 |
| 20260502234809 | 71 | 134 | 0.0 | 1.7 | 0.00 | 0.00 | 0.00 | 63 | 1012.0 |
| 20260502234306 | 74 | 217 | 4.3 | 6.1 | 0.00 | 0.00 | 0.00 | 59 | 1012.0 |
| 20260502233802 | 73 | 177 | 1.7 | 1.7 | 0.00 | 0.00 | 0.00 | 60 | 1012.3 |
| 20260502233259 | 72 | 121 | 1.7 | 1.7 | 0.00 | 0.00 | 0.00 | 60 | 1012.4 |
| 20260502232755 | 71 | 175 | 0.9 | 1.7 | 0.00 | 0.00 | 0.00 | 64 | 1012.4 |
| 20260502232252 | 72 | 117 | 0.9 | 1.7 | 0.00 | 0.00 | 0.00 | 62 | 1012.4 |
| 20260502231749 | 70 | 129 | 0.9 | 1.7 | 0.00 | 0.00 | 0.00 | 62 | 1012.4 |
| 20260502231246 | 70 | 137 | 0.9 | 1.7 | 0.00 | 0.00 | 0.00 | 62 | 1012.5 |
| 20260502230745 | 70 | 89 | 1.7 | 1.7 | 0.00 | 0.00 | 0.00 | 63 | 1012.5 |
| 20260502230243 | 69 | 71 | 0.9 | 1.7 | 0.00 | 0.00 | 0.00 | 64 | 1012.6 |
| 20260502225739 | 69 | 143 | 1.7 | 1.7 | 0.00 | 0.00 | 0.00 | 64 | 1012.7 |
| 20260502225236 | 69 | 150 | 1.7 | 2.6 | 0.00 | 0.00 | 0.00 | 64 | 1012.8 |
| 20260502224732 | 69 | 143 | 0.0 | 0.9 | 0.00 | 0.00 | 0.00 | 64 | 1012.8 |
| 20260502224229 | 70 | 158 | 0.9 | 1.7 | 0.00 | 0.00 | 0.00 | 64 | 1012.9 |
| 20260502223726 | 68 | 51 | 1.7 | 4.3 | 0.00 | 0.00 | 0.00 | 66 | 1013.0 |
| 20260502223224 | 68 | 116 | 1.7 | 4.3 | 0.00 | 0.00 | 0.00 | 64 | 1013.4 |
| 20260502222722 | 69 | 141 | 0.9 | 4.3 | 0.00 | 0.00 | 0.00 | 64 | 1013.2 |
| 20260502222218 | 70 | 342 | 3.5 | 5.2 | 0.00 | 0.00 | 0.00 | 62 | 1013.3 |
| 20260502221714 | 70 | 82 | 2.6 | 4.3 | 0.00 | 0.00 | 0.00 | 63 | 1013.4 |
| 20260502221211 | 71 | 356 | 1.7 | 5.2 | 0.00 | 0.00 | 0.00 | 61 | 1013.4 |
| 20260502220707 | 70 | 20 | 3.5 | 6.1 | 0.00 | 0.00 | 0.00 | 62 | 1013.6 |
| 20260502220204 | 70 | 88 | 0.9 | 5.2 | 0.00 | 0.00 | 0.00 | 61 | 1013.6 |